星链-3175 (STARLINK-3175 )

导读

STARLINK-3175是美国SpaceX公司星链(Starlink)互联网星座项目的卫星,于北京时间2022年1月19日发射入轨。该卫星运行于近地轨道,属于Starlink v1.0卫星平台,由SpaceX自主研发制造,服务于全球卫星互联网项目,旨在为全球尤其是偏远地区提供高速低延迟宽带互联网服务,也可为军事、航空等领域提供通信支持。

基本信息
目录编号:
51140
目录名称:
STARLINK-3175
国际标识:
2022-005AN
轨道中心:
EARTH
卫星名称:
星链-3175
卫星全名:
星链-3175 (STARLINK-3175 )
卫星状态:
在轨 (已飞行1697 天)
发射日期:
2022-01-19 UTC
国别 :
美国 (US)
星等 :
--
该卫星已列入 空间交会检测服务 Space Conjunction Data Service (SCDS) ,当前飞行风险评估等级: 无高风险
轨道信息
数据来源 国际轨道数据 AOE轨道数据
星历时间 2026-09-11T12:33:38+0800
21小时前
查看轨道信息
2026-09-10T21:00:00+0800
1天前
查看轨道信息
半长轴 6848.877km 6848.881km
偏心率 0.0001285 0.0000959
轨道倾角 53.159° 53.159°
近地点辐角 85.639° 67.069°
升交点赤经 173.134° 176.156°
平近点角 274.476° 315.905°
近地点 469.859km 470.087km
远地点 471.621km 471.401km
周期 94.013分钟 94.013分钟
每日圈数 15.317003 15.316989
详细信息
固有亮度:
5
最大亮度:
2.5
卫星平台:
Starlink v1.5
覆盖范围:
全球
运营商:
太空探索技术公司
运营商所在国:
美国
制造商(研发单位):
太空探索技术公司
制造商所在国:
美国
使用方式:
暂无
卫星简介
星链(Starlink)计划是由太空探索技术公司(SpaceX)提出的一个巨型低轨卫星互联网星座项目,计划在2019年至2024年间在太空搭建由约1.2万颗卫星组成的“星链”网络,其中1584颗将部署在地球上空550千米处的近地轨道,并从2020年开始工作。该卫星仍在工作。
2D轨道图
3D轨道图
轨道高度分析图
轨道倾角分析图
轨道综合分析图
查看轨道综合分析图
交会数据列表
事件ID 空间交会对象 最接近时刻(TCA) 交会距离 交会风险概率(CRP) 交会风险指数(CRI) 操作
CDM_260912-171505-114006-050624
LUR-1 (60506)
2026-09-12T
17:15:32+0000
2.273 km
极远距离
2.109012E-6 低风险 0.41
CDM_260913-220005-114006-934021
2026-09-13T
22:00:46+0000
2.831 km
极远距离
1.358869E-6 低风险 0.38
CDM_260913-110305-114006-878621
2026-09-13T
11:03:55+0000
2.877 km
极远距离
1.341687E-6 低风险 0.38
CDM_260912-121905-114006-914721
2026-09-12T
12:19:59+0000
2.920 km
极远距离
1.117595E-6 低风险 0.36
与全量物体交会距离演化趋势
与全量物体交会风险概率演化趋势